Weather History for KIWD - September, 2013

Change the Weather History Date:

Saturday, September 28, 2013

  Actual Average Record
Temperature  
Mean Temperature 63 °F -  
Max Temperature 75 °F 57 °F 75 °F (2013)
Min Temperature 50 °F 38 °F 28 °F (2001)
Degree Days  
Heating Degree Days 2    
Growing Degree Days 13 (Base 50)    
Moisture  
Dew Point 50 °F    
Average Humidity 63    
Maximum Humidity 83    
Minimum Humidity 50    
Precipitation  
Precipitation 0.14 in - - ()
Sea Level Pressure  
Sea Level Pressure 29.78 in    
Wind  
Wind Speed 15 mph (SSW)    
Max Wind Speed 23 mph    
Max Gust Speed 43 mph    
Visibility 10 miles    
Events      
Averages and records for this station are not official NWS values.
T = Trace of Precipitation, MM = Missing Value Source: NWS Daily Summary

Daily Weather History Graph

Daily Weather History Graph

Search for Another Location

Airport or City:

Trip Planner

Search our weather history database for the weather conditions in past years. The results will help you decide how hot, cold, wet, or windy it might be!

Date:

Astronomy

Sep. 28, 2013 Rise Set
Actual Time 6:55 AM CDT 6:45 PM CDT
Civil Twilight 6:25 AM CDT 7:15 PM CDT
Nautical Twilight 5:50 AM CDT 7:50 PM CDT
Astronomical Twilight 5:14 AM CDT 8:26 PM CDT
Moon 12:24 AM CDT (9/28) 3:21 PM CDT (9/28)
Length of Visible Light 12h 50m
Length of Day
11h 50m
Waning Crescent, 36% of the Moon is Illuminated
Sep 28
Waning Crescent
Oct 4
New
Oct 11
First Quarter
Oct 18
Full
Oct 26
Last Quarter

Hourly Weather History & Observations

Time (CDT) Temp. Dew Point Humidity Pressure Visibility Wind Dir Wind Speed Gust Speed Precip Events Conditions
12:15 AM 68.0 °F 50.0 °F 52% 29.90 in 10.0 mi South 16.1 mph 26.5 mph N/A   Clear
12:35 AM 68.0 °F 50.0 °F 52% 29.89 in 10.0 mi South 15.0 mph 27.6 mph N/A   Clear
12:55 AM 68.0 °F 50.0 °F 52% 29.89 in 10.0 mi South 16.1 mph 26.5 mph N/A   Clear
1:15 AM 68.0 °F 50.0 °F 52% 29.89 in 10.0 mi South 16.1 mph 20.7 mph N/A   Clear
1:35 AM 66.2 °F 50.0 °F 56% 29.89 in 10.0 mi South 16.1 mph 27.6 mph N/A   Clear
1:55 AM 66.2 °F 50.0 °F 56% 29.89 in 10.0 mi South 13.8 mph 21.9 mph N/A   Clear
2:15 AM 66.2 °F 50.0 °F 56% 29.89 in 10.0 mi South 10.4 mph 19.6 mph N/A   Clear
2:35 AM 64.4 °F 50.0 °F 59% 29.89 in 10.0 mi South 12.7 mph 19.6 mph N/A   Clear
2:55 AM 64.4 °F 48.2 °F 56% 29.89 in 10.0 mi South 9.2 mph 17.3 mph N/A   Partly Cloudy
3:15 AM 64.4 °F 48.2 °F 56% 29.88 in 10.0 mi SSE 10.4 mph 19.6 mph N/A   Clear
3:35 AM 64.4 °F 48.2 °F 56% 29.88 in 10.0 mi South 12.7 mph 19.6 mph N/A   Clear
3:55 AM 64.4 °F 48.2 °F 56% 29.87 in 10.0 mi South 6.9 mph 18.4 mph N/A   Clear
4:15 AM 64.4 °F 48.2 °F 56% 29.86 in 10.0 mi South 11.5 mph 19.6 mph N/A   Clear
4:35 AM 62.6 °F 46.4 °F 55% 29.86 in 10.0 mi South 13.8 mph 24.2 mph N/A   Clear
4:55 AM 62.6 °F 46.4 °F 55% 29.86 in 10.0 mi South 13.8 mph 21.9 mph N/A   Clear
5:15 AM 62.6 °F 46.4 °F 55% 29.86 in 10.0 mi South 12.7 mph 24.2 mph N/A   Clear
5:35 AM 62.6 °F 46.4 °F 55% 29.85 in 10.0 mi South 16.1 mph 26.5 mph N/A   Clear
5:55 AM 62.6 °F 46.4 °F 55% 29.84 in 10.0 mi South 15.0 mph 27.6 mph N/A   Clear
6:15 AM 62.6 °F 46.4 °F 55% 29.83 in 10.0 mi South 18.4 mph 25.3 mph N/A   Clear
6:35 AM 62.6 °F 46.4 °F 55% 29.83 in 10.0 mi South 13.8 mph 20.7 mph N/A   Clear
6:55 AM 62.6 °F 46.4 °F 55% 29.83 in 10.0 mi South 17.3 mph 24.2 mph N/A   Clear
7:15 AM 62.6 °F 46.4 °F 55% 29.83 in 10.0 mi South 16.1 mph 25.3 mph N/A   Clear
7:35 AM 62.6 °F 46.4 °F 55% 29.83 in 10.0 mi South 13.8 mph 24.2 mph N/A   Clear
7:55 AM 62.6 °F 46.4 °F 55% 29.82 in 10.0 mi SSE 11.5 mph 24.2 mph N/A   Clear
8:15 AM 64.4 °F 48.2 °F 56% 29.81 in 10.0 mi South 13.8 mph 21.9 mph N/A   Clear
8:35 AM 64.4 °F 48.2 °F 56% 29.81 in 10.0 mi South 12.7 mph 23.0 mph N/A   Clear
8:55 AM 64.4 °F 50.0 °F 59% 29.81 in 10.0 mi South 13.8 mph 20.7 mph N/A   Clear
9:15 AM 66.2 °F 51.8 °F 60% 29.80 in 10.0 mi SSE 11.5 mph 29.9 mph N/A   Clear
9:35 AM 66.2 °F 51.8 °F 60% 29.78 in 10.0 mi South 13.8 mph 21.9 mph N/A   Clear
9:55 AM 68.0 °F 53.6 °F 60% 29.76 in 10.0 mi South 20.7 mph 35.7 mph N/A   Clear
10:15 AM 69.8 °F 53.6 °F 56% 29.74 in 10.0 mi South 20.7 mph 28.8 mph N/A   Clear
10:35 AM 69.8 °F 53.6 °F 56% 29.73 in 10.0 mi South 20.7 mph 33.4 mph N/A   Clear
10:55 AM 69.8 °F 55.4 °F 60% 29.73 in 10.0 mi South 19.6 mph 29.9 mph N/A   Clear
11:15 AM 69.8 °F 55.4 °F 60% 29.73 in 10.0 mi South 18.4 mph 29.9 mph N/A   Clear
11:35 AM 71.6 °F 55.4 °F 57% 29.70 in 10.0 mi South 15.0 mph 34.5 mph N/A   Clear
11:55 AM 73.4 °F 55.4 °F 53% 29.69 in 10.0 mi South 23.0 mph 33.4 mph N/A   Clear
12:15 PM 73.4 °F 55.4 °F 53% 29.67 in 10.0 mi SSE 23.0 mph 34.5 mph N/A   Clear
12:35 PM 75.2 °F 55.4 °F 50% 29.66 in 10.0 mi South 17.3 mph 29.9 mph N/A   Clear
12:55 PM 75.2 °F 55.4 °F 50% 29.64 in 10.0 mi South 23.0 mph 33.4 mph N/A   Clear
1:15 PM 75.2 °F 55.4 °F 50% 29.63 in 10.0 mi South 17.3 mph 31.1 mph N/A   Clear
1:35 PM 75.2 °F 55.4 °F 50% 29.61 in 10.0 mi SSE 23.0 mph 34.5 mph N/A   Clear
1:55 PM 75.2 °F 55.4 °F 50% 29.60 in 10.0 mi South 13.8 mph 32.2 mph N/A   Scattered Clouds
2:15 PM 73.4 °F 55.4 °F 53% 29.60 in 10.0 mi South 18.4 mph 31.1 mph N/A   Mostly Cloudy
2:35 PM 73.4 °F 55.4 °F 53% 29.60 in 10.0 mi South 21.9 mph 42.6 mph N/A   Overcast
2:55 PM 71.6 °F 55.4 °F 57% 29.61 in 10.0 mi South 21.9 mph 31.1 mph N/A   Overcast
3:15 PM 71.6 °F 55.4 °F 57% 29.61 in 10.0 mi South 11.5 mph 31.1 mph N/A   Overcast
3:35 PM 69.8 °F 55.4 °F 60% 29.61 in 10.0 mi South 16.1 mph 27.6 mph N/A   Overcast
3:55 PM 66.2 °F 57.2 °F 73% 29.62 in 8.0 mi South 15.0 mph 24.2 mph N/A   Overcast
4:15 PM 64.4 °F 57.2 °F 77% 29.63 in 3.0 mi South 12.7 mph 21.9 mph N/A   Overcast
4:35 PM 64.4 °F 59.0 °F 83% 29.65 in 3.0 mi WSW 19.6 mph - 0.02 in   Overcast
4:55 PM 60.8 °F 55.4 °F 82% 29.68 in 3.0 mi WSW 13.8 mph 26.5 mph 0.12 in   Overcast
5:15 PM 59.0 °F 53.6 °F 82% 29.69 in 8.0 mi SW 19.6 mph 27.6 mph 0.01 in   Overcast
5:35 PM - - N/A% 29.71 in 5.0 mi West 23.0 mph 31.1 mph 0.02 in   Overcast
5:55 PM 55.4 °F 50.0 °F 82% 29.73 in 10.0 mi West 19.6 mph - 0.02 in   Mostly Cloudy
6:15 PM 53.6 °F 48.2 °F 82% 29.75 in 10.0 mi WSW 17.3 mph 28.8 mph N/A   Mostly Cloudy
6:35 PM 53.6 °F 48.2 °F 82% 29.76 in 10.0 mi WSW 13.8 mph - N/A   Overcast
6:55 PM 53.6 °F 48.2 °F 82% 29.76 in 10.0 mi WSW 13.8 mph 18.4 mph N/A   Mostly Cloudy
7:15 PM 53.6 °F 46.4 °F 77% 29.76 in 10.0 mi WSW 12.7 mph - N/A   Partly Cloudy
7:35 PM 53.6 °F 46.4 °F 77% 29.77 in 10.0 mi SW 8.1 mph - N/A   Clear
7:55 PM 53.6 °F 46.4 °F 77% 29.78 in 10.0 mi SW 8.1 mph - N/A   Clear
8:15 PM 53.6 °F 46.4 °F 77% 29.79 in 10.0 mi SW 13.8 mph 17.3 mph N/A   Mostly Cloudy
8:35 PM 53.6 °F 46.4 °F 77% 29.79 in 10.0 mi WSW 11.5 mph - N/A   Overcast
8:55 PM 53.6 °F 46.4 °F 77% 29.80 in 10.0 mi SW 12.7 mph 16.1 mph N/A   Overcast
9:15 PM 53.6 °F 46.4 °F 77% 29.81 in 10.0 mi WSW 10.4 mph 19.6 mph N/A   Scattered Clouds
9:35 PM 53.6 °F 46.4 °F 77% 29.81 in 10.0 mi WSW 13.8 mph 18.4 mph N/A   Partly Cloudy
9:55 PM 51.8 °F 46.4 °F 82% 29.82 in 10.0 mi WSW 9.2 mph - N/A   Clear
10:15 PM 51.8 °F 44.6 °F 76% 29.83 in 10.0 mi WSW 12.7 mph - N/A   Clear
10:35 PM 51.8 °F 44.6 °F 76% 29.83 in 10.0 mi WSW 13.8 mph - N/A   Clear
10:55 PM 51.8 °F 44.6 °F 76% 29.84 in 10.0 mi WSW 11.5 mph 17.3 mph N/A   Clear
11:15 PM 51.8 °F 44.6 °F 76% 29.84 in 10.0 mi West 13.8 mph 19.6 mph N/A   Mostly Cloudy
11:35 PM 51.8 °F 44.6 °F 76% 29.85 in 10.0 mi West 12.7 mph - N/A   Mostly Cloudy
11:55 PM 50.0 °F 44.6 °F 82% 29.86 in 10.0 mi West 12.7 mph - N/A   Clear